Location: Cucq
(50.4773°N, 1.6202°E)
Time: 06:17:49
(UTC+00:00)

KORONAS-FOTON - Pass Details

Date: 07 August 2020
Orbit: 506 x 531 km, 82.4° (Epoch: 23 September)

Event Time Altitude Azimuth Distance (km) Brightness Sun altitude
Rises 02:12:22 0° 342° (NNW) 2,625 8.0 -17.1°
Reaches altitude 10° 02:14:36 10° 334° (NNW) 1,735 6.8 -16.9°
Maximum altitude 02:18:05 35° 268° (W) 833 4.5 -16.6°
Enters shadow 02:18:44 33° 244° (WSW) 881 4.5 -16.5°
